Weather History for Ft Pierce, FL

Change the Weather History Date:

Saturday, December 8, 2012

  Actual Average Record
Temperature  
Mean Temperature 70 °F -  
Max Temperature 79 °F 76 °F 85 °F (1971)
Min Temperature 62 °F 57 °F 30 °F (2010)
Cooling Degree Days 6    
Growing Degree Days 20 (Base 50)    
Moisture  
Dew Point 65 °F    
Average Humidity 89    
Maximum Humidity 100    
Minimum Humidity 68    
Precipitation  
Precipitation 0.65 in - - ()
Sea Level Pressure  
Sea Level Pressure 30.01 in    
Wind  
Wind Speed 1 mph (East)    
Max Wind Speed 16 mph    
Max Gust Speed 28 mph    
Visibility 6 miles    
Events Fog , Rain    
Averages and records for this station are not official NWS values.
T = Trace of Precipitation, MM = Missing Value Source: NWS Daily Summary

Daily Weather History Graph

Daily Weather History Graph

Search for Another Location

Airport:

Trip Planner

Search our weather history database for the weather conditions in past years. The results will help you decide how hot, cold, wet, or windy it might be!

Date:

Astronomy

Dec. 08, 2012 Rise Set
Actual Time 6:59 AM EST 5:27 PM EST
Civil Twilight 6:34 AM EST 5:52 PM EST
Nautical Twilight 6:05 AM EST 6:21 PM EST
Astronomical Twilight 5:36 AM EST 6:50 PM EST
Moon 1:45 AM EST (12/8) 1:36 PM EST (12/8)
Length of Visible Light 11h 18m
Length of Day
10h 27m
Waning Crescent, 28% of the Moon is Illuminated
Dec 8
Waning Crescent
Dec 13
New
Dec 20
First Quarter
Dec 28
Full
Jan 4
Last Quarter

Hourly Weather History & Observations

Time (EST) Temp. Dew Point Humidity Pressure Visibility Wind Dir Wind Speed Gust Speed Precip Events Conditions
12:04 AM 64.4 °F 62.6 °F 94% 29.99 in 9.0 mi Calm Calm - N/A   Scattered Clouds
12:48 AM 64.4 °F 62.6 °F 94% 29.99 in 1.5 mi Calm Calm - N/A   Partly Cloudy
12:51 AM 64.4 °F 62.6 °F 94% 29.99 in 0.8 mi Calm Calm - N/A   Mist
12:53 AM 64.0 °F 63.0 °F 96% 29.99 in 0.8 mi Calm Calm - N/A   Mist
12:58 AM 62.6 °F 62.6 °F 100% 29.99 in 1.2 mi Calm Calm - N/A   Partly Cloudy
1:06 AM 62.6 °F 60.8 °F 94% 29.99 in 9.0 mi Calm Calm - N/A   Scattered Clouds
1:18 AM 64.4 °F 62.6 °F 94% 29.99 in 8.0 mi Calm Calm - N/A   Mostly Cloudy
1:28 AM 64.4 °F 62.6 °F 94% 29.99 in 3.0 mi Calm Calm - N/A   Mostly Cloudy
1:39 AM 64.4 °F 62.6 °F 94% 29.98 in 8.0 mi Calm Calm - N/A   Mostly Cloudy
1:53 AM 64.9 °F 64.0 °F 97% 29.99 in 9.0 mi Calm Calm - N/A   Mostly Cloudy
2:08 AM 64.4 °F 62.6 °F 94% 29.98 in 8.0 mi Calm Calm - N/A   Mostly Cloudy
2:46 AM 64.4 °F 62.6 °F 94% 29.98 in 1.8 mi Calm Calm - N/A   Partly Cloudy
2:53 AM 64.0 °F 62.1 °F 93% 29.98 in 1.0 mi NW 3.5 mph - N/A   Mist
2:58 AM 62.6 °F 62.6 °F 100% 29.98 in 2.0 mi Calm Calm - N/A   Partly Cloudy
3:08 AM 62.6 °F 62.6 °F 100% 29.98 in 8.0 mi Calm Calm - N/A   Partly Cloudy
3:53 AM 64.0 °F 62.1 °F 93% 29.98 in 5.0 mi Calm Calm - N/A   Scattered Clouds
4:53 AM 64.0 °F 63.0 °F 96% 29.99 in 10.0 mi Calm Calm - N/A   Overcast
5:53 AM 63.0 °F 62.1 °F 97% 30.00 in 1.5 mi Calm Calm - N/A   Partly Cloudy
5:58 AM 62.6 °F 62.6 °F 100% 30.00 in 0.5 mi Calm Calm - N/A Fog Fog
6:04 AM 64.4 °F 62.6 °F 94% 30.01 in 0.2 mi Calm Calm - N/A Fog Fog
6:11 AM 62.6 °F 62.6 °F 100% 30.01 in 0.5 mi Calm Calm - N/A Fog Fog
6:26 AM 62.6 °F 60.8 °F 94% 30.01 in 1.0 mi Calm Calm - N/A   Mist
6:29 AM 62.6 °F 60.8 °F 94% 30.01 in 2.0 mi Calm Calm - N/A   Partly Cloudy
6:44 AM 62.6 °F 60.8 °F 94% 30.01 in 1.2 mi Calm Calm - N/A   Scattered Clouds
6:53 AM 62.1 °F 61.0 °F 96% 30.02 in 0.8 mi Calm Calm - N/A   Mist
6:58 AM 62.6 °F 60.8 °F 94% 30.02 in 10.0 mi Calm Calm - N/A   Partly Cloudy
7:53 AM 64.9 °F 64.9 °F 100% 30.03 in 10.0 mi Calm Calm - N/A   Clear
8:53 AM 73.9 °F 68.0 °F 82% 30.05 in 10.0 mi Calm Calm - N/A   Clear
9:53 AM 77.0 °F 68.0 °F 74% 30.06 in 10.0 mi Calm Calm - N/A   Clear
10:53 AM 78.1 °F 66.9 °F 68% 30.05 in 10.0 mi ENE 5.8 mph - N/A   Scattered Clouds
11:53 AM 78.1 °F 68.0 °F 71% 30.03 in 10.0 mi Variable 5.8 mph - N/A   Clear
12:53 PM 79.0 °F 69.1 °F 72% 30.00 in 10.0 mi ENE 5.8 mph - N/A   Partly Cloudy
1:53 PM 79.0 °F 69.1 °F 72% 29.99 in 10.0 mi East 8.1 mph - N/A   Clear
2:53 PM 77.0 °F 69.1 °F 76% 29.99 in 10.0 mi NE 6.9 mph - N/A   Scattered Clouds
3:53 PM 75.9 °F 69.1 °F 79% 29.99 in 10.0 mi ENE 5.8 mph - N/A   Mostly Cloudy
4:53 PM 77.0 °F 69.1 °F 76% 30.00 in 10.0 mi ENE 4.6 mph - N/A   Mostly Cloudy
5:30 PM 75.2 °F 68.0 °F 78% 30.01 in 10.0 mi ENE 3.5 mph - N/A   Overcast
5:53 PM 75.0 °F 69.1 °F 82% 30.01 in 10.0 mi ENE 3.5 mph - N/A   Overcast
6:53 PM 75.0 °F 69.1 °F 82% 30.03 in 10.0 mi East 3.5 mph - N/A   Mostly Cloudy
7:53 PM 75.0 °F 69.1 °F 82% 30.03 in 10.0 mi East 5.8 mph - N/A   Partly Cloudy
8:53 PM 75.0 °F 70.0 °F 84% 30.04 in 10.0 mi East 5.8 mph - 0.00 in   Mostly Cloudy
9:28 PM 71.6 °F 69.8 °F 94% 30.06 in 1.8 mi SSE 16.1 mph 27.6 mph 0.15 in Rain Heavy Rain
9:35 PM 69.8 °F 66.2 °F 88% 30.07 in 1.0 mi SSE 9.2 mph - 0.45 in Rain Heavy Rain
9:46 PM 69.8 °F 66.2 °F 88% 30.05 in 1.5 mi SE 11.5 mph - 0.64 in Rain Heavy Rain
9:53 PM 73.0 °F 66.9 °F 81% 30.05 in 4.0 mi SE 6.9 mph - 0.64 in Rain Light Rain
10:03 PM 71.6 °F 66.2 °F 83% 30.05 in 10.0 mi SSE 3.5 mph - N/A   Overcast
10:53 PM 70.0 °F 66.9 °F 90% 30.06 in 10.0 mi Calm Calm - 0.01 in   Overcast
11:53 PM 72.0 °F 68.0 °F 87% 30.04 in 10.0 mi NE 3.5 mph - N/A   Overcast